| time (UTC) | temp F | wind direction | speed MPH | gust MPH | rain 1hr in | rain 24hr in | rain mn in | humidity % | barometer mb |
| 20260506101558 | 61 | 0 | 0.0 | 3.0 | 0.00 | 0.00 | 0.00 | 79 | 1009.3 |
| 20260506100054 | 61 | 0 | 0.0 | 2.0 | 0.00 | 0.00 | 0.00 | 80 | 1009.2 |
| 20260506094551 | 61 | 117 | 0.0 | 2.0 | 0.00 | 0.00 | 0.00 | 80 | 1009.2 |
| 20260506093051 | 61 | 0 | 0.0 | 1.0 | 0.00 | 0.00 | 0.00 | 80 | 1009.2 |
| 20260506091552 | 61 | 0 | 1.0 | 3.0 | 0.00 | 0.00 | 0.00 | 79 | 1009.1 |
| 20260506090052 | 61 | 106 | 0.0 | 1.0 | 0.00 | 0.00 | 0.00 | 78 | 1009.0 |
| 20260506084552 | 61 | 0 | 0.0 | 2.0 | 0.00 | 0.00 | 0.00 | 78 | 1009.0 |
| 20260506083051 | 62 | 0 | 0.0 | 2.0 | 0.00 | 0.00 | 0.00 | 77 | 1008.9 |
| 20260506081552 | 61 | 114 | 0.0 | 3.0 | 0.00 | 0.00 | 0.00 | 77 | 1008.8 |
| 20260506073059 | 60 | 0 | 0.0 | 2.0 | 0.00 | 0.00 | 0.00 | 78 | 1008.5 |
| 20260506071552 | 59 | 0 | 0.0 | 2.0 | 0.00 | 0.00 | 0.00 | 79 | 1008.4 |
| 20260506070115 | 58 | 0 | 0.0 | 2.0 | 0.00 | 0.00 | 0.00 | 80 | 1008.4 |
| 20260506061553 | 59 | 0 | 0.0 | 0.0 | 0.00 | 0.00 | 0.00 | 77 | 1008.6 |
| 20260506044557 | 63 | 0 | 0.0 | 4.0 | 0.00 | 0.00 | 0.00 | 69 | 1009.1 |
| 20260506043049 | 63 | 0 | 0.0 | 2.0 | 0.00 | 0.00 | 0.00 | 68 | 1008.9 |
| 20260506041556 | 65 | 106 | 0.0 | 8.0 | 0.00 | 0.00 | 0.00 | 66 | 1008.9 |
| 20260506040100 | 64 | 84 | 0.0 | 3.0 | 0.00 | 0.00 | 0.00 | 67 | 1008.8 |
| 20260506034553 | 63 | 0 | 1.0 | 4.0 | 0.00 | 0.00 | 0.00 | 69 | 1008.8 |
| 20260506033053 | 61 | 0 | 0.0 | 2.0 | 0.00 | 0.00 | 0.00 | 73 | 1008.6 |
| 20260506031559 | 62 | 0 | 0.0 | 2.0 | 0.00 | 0.00 | 0.00 | 71 | 1008.6 |
| 20260506030112 | 63 | 0 | 0.0 | 1.0 | 0.00 | 0.00 | 0.00 | 68 | 1008.6 |
| 20260506024553 | 65 | 95 | 0.0 | 1.0 | 0.00 | 0.00 | 0.00 | 66 | 1008.5 |
| 20260506023054 | 65 | 0 | 0.0 | 1.0 | 0.00 | 0.00 | 0.00 | 66 | 1008.5 |
| 20260506021558 | 64 | 0 | 0.0 | 2.0 | 0.00 | 0.00 | 0.00 | 68 | 1008.7 |
| 20260506020055 | 63 | 0 | 0.0 | 0.0 | 0.00 | 0.00 | 0.00 | 70 | 1008.8 |
| 20260506014600 | 64 | 112 | 0.0 | 3.0 | 0.00 | 0.00 | 0.00 | 69 | 1008.7 |
| 20260506013053 | 63 | 120 | 0.0 | 1.0 | 0.00 | 0.00 | 0.00 | 69 | 1008.7 |
| 20260506011557 | 63 | 0 | 0.0 | 2.0 | 0.00 | 0.00 | 0.00 | 70 | 1008.5 |
| 20260506010054 | 63 | 0 | 0.0 | 2.0 | 0.00 | 0.00 | 0.00 | 69 | 1008.3 |
| 20260506004624 | 63 | 0 | 0.0 | 1.0 | 0.00 | 0.00 | 0.00 | 68 | 1008.1 |
| 20260506003049 | 66 | 0 | 0.0 | 1.0 | 0.00 | 0.00 | 0.00 | 65 | 1007.4 |
| 20260506001556 | 67 | 0 | 0.0 | 3.0 | 0.00 | 0.00 | 0.00 | 62 | 1006.8 |
| 20260506000048 | 68 | 114 | 0.0 | 3.0 | 0.00 | 0.00 | 0.00 | 60 | 1006.4 |
| 20260505234609 | 69 | 63 | 2.0 | 5.0 | 0.00 | 0.00 | 0.00 | 59 | 1006.2 |
| 20260505233053 | 70 | 78 | 2.0 | 5.0 | 0.00 | 0.00 | 0.00 | 58 | 1005.9 |
| 20260505231553 | 71 | 95 | 2.0 | 6.0 | 0.00 | 0.00 | 0.00 | 56 | 1005.6 |
| 20260505230051 | 71 | 61 | 3.0 | 8.0 | 0.00 | 0.00 | 0.00 | 56 | 1005.1 |
| 20260505224548 | 70 | 106 | 3.0 | 6.0 | 0.00 | 0.00 | 0.00 | 58 | 1004.9 |
| 20260505223102 | 69 | 22 | 3.0 | 9.0 | 0.00 | 0.00 | 0.00 | 58 | 1004.6 |
| 20260505221606 | 69 | 29 | 4.0 | 8.0 | 0.00 | 0.00 | 0.00 | 58 | 1004.5 |
| 20260505220137 | 69 | 127 | 3.0 | 15.0 | 0.00 | 0.00 | 0.00 | 58 | 1004.4 |
| 20260505214604 | 68 | 72 | 4.0 | 9.0 | 0.00 | 0.00 | 0.00 | 59 | 1004.4 |
| 20260505213049 | 69 | 75 | 5.0 | 10.0 | 0.00 | 0.00 | 0.00 | 59 | 1004.4 |
| 20260505211606 | 69 | 91 | 4.0 | 10.0 | 0.00 | 0.00 | 0.00 | 58 | 1004.4 |
| 20260505210052 | 69 | 75 | 3.0 | 8.0 | 0.00 | 0.00 | 0.00 | 58 | 1004.3 |
| 20260505204551 | 70 | 95 | 4.0 | 10.0 | 0.00 | 0.00 | 0.00 | 58 | 1004.4 |
| 20260505203052 | 71 | 65 | 4.0 | 9.0 | 0.00 | 0.00 | 0.00 | 56 | 1004.5 |
| 20260505201559 | 71 | 137 | 3.0 | 8.0 | 0.00 | 0.00 | 0.00 | 56 | 1004.5 |
| 20260505200101 | 71 | 25 | 3.0 | 10.0 | 0.00 | 0.00 | 0.00 | 55 | 1004.7 |
| 20260505194555 | 71 | 40 | 4.0 | 9.0 | 0.00 | 0.00 | 0.00 | 56 | 1004.7 |
| 20260505193046 | 70 | 130 | 3.0 | 9.0 | 0.00 | 0.00 | 0.00 | 58 | 1005.0 |
| 20260505191546 | 72 | 183 | 4.0 | 10.0 | 0.00 | 0.00 | 0.00 | 57 | 1005.3 |
| 20260505190100 | 72 | 36 | 3.0 | 8.0 | 0.00 | 0.00 | 0.00 | 57 | 1005.7 |
| 20260505184548 | 71 | 106 | 3.0 | 7.0 | 0.00 | 0.00 | 0.00 | 58 | 1005.7 |
| 20260505183050 | 71 | 97 | 4.0 | 11.0 | 0.00 | 0.00 | 0.00 | 57 | 1005.9 |
| 20260505181545 | 72 | 53 | 4.0 | 8.0 | 0.00 | 0.00 | 0.00 | 56 | 1006.2 |
| 20260505180052 | 71 | 13 | 4.0 | 10.0 | 0.00 | 0.00 | 0.00 | 57 | 1006.1 |
| 20260505174553 | 71 | 103 | 3.0 | 8.0 | 0.00 | 0.00 | 0.00 | 57 | 1006.5 |
| 20260505173050 | 72 | 108 | 5.0 | 11.0 | 0.00 | 0.00 | 0.00 | 54 | 1006.7 |
| 20260505171548 | 73 | 36 | 3.0 | 7.0 | 0.00 | 0.00 | 0.00 | 54 | 1006.9 |
| 20260505170047 | 74 | 27 | 3.0 | 7.0 | 0.00 | 0.00 | 0.00 | 51 | 1007.1 |
| 20260505164607 | 77 | 145 | 3.0 | 8.0 | 0.00 | 0.00 | 0.00 | 48 | 1007.1 |
| 20260505163053 | 78 | 37 | 2.0 | 7.0 | 0.00 | 0.00 | 0.00 | 48 | 1007.3 |
| 20260505161557 | 80 | 128 | 1.0 | 8.0 | 0.00 | 0.00 | 0.00 | 45 | 1007.5 |
| 20260505153049 | 77 | 91 | 4.0 | 8.0 | 0.00 | 0.00 | 0.00 | 46 | 1008.1 |
| 20260505151550 | 76 | 112 | 3.0 | 9.0 | 0.00 | 0.00 | 0.00 | 48 | 1008.3 |
| 20260505140112 | 71 | 123 | 0.0 | 6.0 | 0.00 | 0.00 | 0.00 | 55 | 1008.6 |
| 20260505124551 | 66 | 106 | 2.0 | 6.0 | 0.00 | 0.00 | 0.00 | 59 | 1008.9 |
| 20260505123053 | 65 | 117 | 0.0 | 4.0 | 0.00 | 0.00 | 0.00 | 61 | 1008.9 |
| 20260505121550 | 64 | 97 | 0.0 | 3.0 | 0.00 | 0.00 | 0.00 | 65 | 1008.5 |
| 20260505120053 | 61 | 0 | 1.0 | 5.0 | 0.00 | 0.00 | 0.00 | 67 | 1008.5 |
| 20260505114549 | 59 | 117 | 0.0 | 4.0 | 0.00 | 0.00 | 0.00 | 69 | 1008.7 |
| 20260505113048 | 57 | 0 | 0.0 | 2.0 | 0.00 | 0.00 | 0.00 | 73 | 1008.8 |
| 20260505111548 | 55 | 0 | 0.0 | 1.0 | 0.00 | 0.00 | 0.00 | 77 | 1008.9 |